User: anonymous
Location: Lawrence
(38.9720°N, 95.2350°W)
Time: 03:07:06
(UTC-05:00)
Language:

ALOS - Orbit

View from above orbital plane
View from above orbital plane
View from above satellite
View from above satellite

Ground track
Ground track

The orbit data is extracted from the following two-line orbital elements,

1 28931U 06002A   14106.48930269  .00000758  00000-0  16344-3 0   143
2 28931 097.9892 166.6999 0001474 072.3119 051.3931 14.61060800438311
Epoch (UTC): 16 April 2014 11:44:35
Eccentricity: 0.0001474
inclination: 97.9892°
perigee height: 689 km
apogee height: 691 km
right ascension of ascending node: 166.6999°
argument of perigee: 72.3119°
revolutions per day: 14.61060800
mean anomaly at epoch: 51.3931°
orbit number at epoch: 43831

The dashed part of the orbit path shows where the satellite is in the earth's shadow,  

DLR